XW-2F
1 40910U 15049M 22230.86607819 .00007461 00000-0 31087-3 0 9997
2 40910 97.4726 237.6634 0014674 113.3766 7.0073 15.23911612382686
XW-2B
1 40911U 15049N 22230.73237637 .00004641 00000-0 21694-3 0 9991
2 40911 97.4922 234.2907 0014256 133.2173 341.9821 15.20193134382319
DCBB
1 40912U 15049P 22230.73896987 .00008929 00000-0 33708-3 0 9993
2 40912 97.4365 241.8842 0014638 84.3133 26.0193 15.27153150383257
TW-1A
1 40928U 15051D 22230.81500332 .00044181 00000-0 45754-3 0 9992
2 40928 97.0351 253.1129 0008839 136.4990 312.1898 15.64539199387971
IO-86
1 40931U 15052B 22230.44602848 .00000498 00000-0 -19851-4 0 9995
2 40931 6.0038 86.8673 0013777 327.0761 32.8724 14.76842122372527
AO-85
1 40967U 15058D 22229.16485543 .00001133 00000-0 13608-3 0 4510
2 40967 64.7722 247.2389 0187345 180.8926 179.1836 14.77639840 69631
ATHENOXAT-1
1 41168U 15077C 22230.56400005 .00011349 00000-0 44503-3 0 9996
2 41168 14.9940 349.6040 0009539 31.9268 62.5658 15.22259183369783
ChubuSat-2
1 41338U 16012B 22230.55754279 .00001752 00000-0 12539-3 0 9990
2 41338 31.0039 348.4080 0013310 48.6790 311.4989 15.01556220356822
ChubuSat-3
1 41339U 16012C 22230.74685638 .00001440 00000-0 10177-3 0 9994
2 41339 31.0127 344.1207 0013193 57.7670 302.4246 15.01619543356859
Horyu-4
1 41340U 16012D 22230.58014786 .00003132 00000-0 21698-3 0 9998
2 41340 31.0053 322.2689 0013146 98.8272 261.3853 15.03618532357084
e-st@r-II
1 41459U 16025D 22230.87586899 .00008626 00000-0 36309-3 0 9992
2 41459 98.1924 40.7256 0142642 57.7260 303.7736 15.14775412346940
AAUSAT4
1 41460U 16025E 22230.79836361 .00013014 00000-0 47592-3 0 9990
2 41460 98.1827 47.4410 0121162 31.9401 328.9150 15.21481284347416
LO-87
1 41557U 16033B 22230.83015297 .00010684 00000-0 30694-3 0 9993
2 41557 97.3902 328.6943 0011331 147.9177 6.4227 15.35948163346957
NuSat2
1 41558U 16033C 22230.84608771 .00010577 00000-0 28619-3 0 9995
2 41558 97.4109 334.7612 0011136 138.3843 15.0777 15.37823211347232
Lapan A3
1 41603U 16040E 22230.88416845 .00001025 00000-0 49416-4 0 9994
2 41603 97.2023 265.1853 0011722 306.6835 170.5326 15.20813888341526
Pratham
1 41783U 16059A 22230.37583530 .00000373 00000-0 80486-4 0 9990
2 41783 97.9094 269.4380 0032829 340.6907 19.3049 14.63404527314682
TY-1
1 41844U 16066D 22230.71373205 .00010447 00000-0 34249-3 0 9998
2 41844 97.3891 242.4884 0014590 70.8471 57.2577 15.31714564321138
CAS-2T
1 41847U 16066G 22230.17365107 .00000665 00000-0 10908-3 0 9990
2 41847 98.5468 294.7636 0363890 25.4307 336.4301 14.38694375303223
EO-88
1 42017U 17008BX 22230.60472700 .00017836 00000-0 50509-3 0 9992
2 42017 97.2640 295.8750 0005256 41.4206 318.7436 15.36321571306617
CAS-4B
1 42759U 17034B 22230.74207138 .00003006 00000-0 18333-3 0 9993
2 42759 43.0186 349.2682 0010471 317.8830 160.1978 15.12271757285788
CAS-4A
1 42761U 17034D 22230.77590134 .00003114 00000-0 18897-3 0 9995
2 42761 43.0187 347.8216 0010857 320.6237 166.4412 15.12358839285790
NIUSat
1 42766U 17036B 22230.52627973 .00009389 00000-0 35322-3 0 9999
2 42766 97.1982 266.1519 0015244 105.9484 254.3437 15.27229483286276
Aalto 1
1 42775U 17036L 22230.53214996 .00007153 00000-0 27751-3 0 9991
2 42775 97.1937 265.9700 0014200 105.2657 255.0153 15.26310117286245
URSA MAIOR
1 42776U 17036M 22230.35784355 .00008921 00000-0 33887-3 0 9994
2 42776 97.1950 266.5951 0013832 104.7904 255.4869 15.26944651286250
Max Valier Sat
1 42778U 17036P 22230.82188377 .00009782 00000-0 36158-3 0 9990
2 42778 97.2009 269.7990 0012605 103.9068 256.3575 15.27835919286425
Pegasus
1 42784U 17036V 22230.07306749 .00012282 00000-0 42456-3 0 9996
2 42784 97.1948 270.0395 0011777 106.5521 253.7015 15.29985064286439
NUDATSat
1 42787U 17036Y 22230.56847752 .00016843 00000-0 48709-3 0 9991
2 42787 97.1977 275.1142 0010358 93.0170 267.2265 15.35634575286627
SUCHAI 1
1 42788U 17036Z 22230.05821866 .00016031 00000-0 51971-3 0 9998
2 42788 97.1953 271.8334 0011023 102.0731 258.1747 15.32008634286613
SKCUBE
1 42789U 17036AA 22230.54508500 .00012890 00000-0 43001-3 0 9994
2 42789 97.1951 271.6981 0011092 101.5839 258.6648 15.31133333286571
VZLUSAT 1
1 42790U 17036AB 22230.38699143 .00024543 00000-0 71235-3 0 9990
2 42790 97.1975 274.8906 0009739 94.9512 265.2844 15.35451131286743
VENTA 1
1 42791U 17036AC 22230.34227832 .00013109 00000-0 44716-3 0 9999
2 42791 97.1955 271.3329 0010912 102.9129 257.3332 15.30410202286521
Robusta 1B
1 42792U 17036AD 22230.34760500 .00016897 00000-0 55218-3 0 9990
2 42792 97.1946 272.1169 0010578 102.1121 258.1307 15.31743803286590
D-SAT
1 42794U 17036AF 22230.48474711 .00001686 00000-0 14631-3 0 9997
2 42794 97.4531 232.6349 0121107 237.0488 121.9040 14.92881270280739
TechnoSat
1 42829U 17042E 22230.52496092 .00001191 00000-0 12248-3 0 9997
2 42829 97.4155 81.0269 0014530 153.8417 206.3540 14.91984989277341
AO-91
1 43017U 17073E 22230.64055667 .00005056 00000-0 38009-3 0 9990
2 43017 97.6662 122.2795 0246963 344.5396 14.8366 14.81820226256325
PICSAT
1 43132U 18004X 22230.21298333 .00016510 00000-0 52292-3 0 9992
2 43132 97.3685 306.3021 0008676 132.7246 227.4728 15.32775503255866
AO-92
1 43137U 18004AC 22230.42793837 .00012486 00000-0 42689-3 0 9996
2 43137 97.3647 305.0580 0008743 134.9183 225.2768 15.30373893255813
TianYi 2
1 43155U 18008A 22230.82412978 .00005187 00000-0 27258-3 0 9993
2 43155 97.3480 287.2313 0014310 289.9623 181.9286 15.16029451252722
Zhou Enlai
1 43156U 18008B 22230.84907025 .00004753 00000-0 25160-3 0 9996
2 43156 97.3528 287.1503 0011578 290.8292 189.1173 15.15840526252652
TianYi 6
1 43158U 18008D 22230.40456343 .00004773 00000-0 26092-3 0 9999
2 43158 97.3481 284.5684 0011312 294.5657 128.6887 15.14698238252486
S-Net D
1 43186U 18014G 22230.28276950 .00002313 00000-0 20009-3 0 9997
2 43186 97.6518 134.8307 0012634 91.4414 268.8256 14.98085081248178
S-Net B
1 43187U 18014H 22230.68374498 .00002196 00000-0 19025-3 0 9993
2 43187 97.6515 135.1723 0012650 90.2712 269.9960 14.98083891248236
S-Net A
1 43188U 18014J 22230.55045808 .00002183 00000-0 18916-3 0 9994
2 43188 97.6520 135.1086 0012653 90.7459 269.5213 14.98082863248214
S-Net C
1 43189U 18014K 22230.55126937 .00002235 00000-0 19357-3 0 9996
2 43189 97.6515 135.0304 0012688 90.5116 269.7560 14.98080833246767
FMN 1
1 43192U 18015A 22230.82718271 .00025977 00000-0 62585-3 0 9998
2 43192 97.5421 17.7748 0010597 164.6211 333.1528 15.41181291253048
Shaonian Xing
1 43199U 18015H 22230.82931853 .00014307 00000-0 41052-3 0 9999
2 43199 97.5212 12.3546 0012931 173.9543 323.2119 15.35896561253014
SurfSat
1 43614U 18070B 22230.52212432 .00045694 00000-0 57213-3 0 9993
2 43614 93.0244 125.1791 0013158 121.5406 238.7146 15.59533291220722
CP-7 DAVE
1 43615U 18070C 22230.20389451 .00047590 00000-0 63641-3 0 9994
2 43615 93.0235 124.8303 0013373 126.0167 234.2339 15.57772773220634
ELFIN-B
1 43616U 18070D 22229.75541819 .00186338 00000-0 93723-3 0 9999
2 43616 93.0124 126.4203 0012303 113.9110 246.3457 15.81096219220999
ELFIN-A
1 43617U 18070E 22230.18558940 .00322828 37047-4 12268-2 0 9997
2 43617 93.0165 128.1641 0011670 113.7853 246.4652 15.87465080221135
